Regional Weather Roundup
Issued by NWS

Home | Current Version | Previous Version | Graphics & Text | Print | Product List | Glossary On
Versions: 1 2 3 4 5 6 7 8 9 10 11 12 13 14 15 16 17 18 19 20 21 22 23 24 25 26 27 28 29 30 31 32 33 34 35 36 37 38 39 40 41 42 43 44 45 46 47 48 49 50
000
ASUS44 KMEG 040400
RWRTN
TENNESSEE HOURLY STATE WEATHER ROUNDUP
NATIONAL WEATHER SERVICE MEMPHIS TN
1000 PM CST SAT DEC 03 2016

TNZ002-004-019-021-049-052-054-088>092-040500-
WEST TENNESSEE

CITY           SKY/WX    TMP DP  RH WIND       PRES   REMARKS
MEMPHIS INTL   LGT RAIN  43  41  93 E10       30.16R
NWS MEMPHIS      N/A     42 N/A N/A MISG        N/A
JACKSON        LGT RAIN  41  32  70 E8        30.19F
DYERSBURG      CLOUDY   N/A N/A N/A E8        30.17F
UNION CITY     CLOUDY    37  37 100 CALM      30.19F
PARIS          CLOUDY    36  34  93 E6        30.21F WCI  31
$$

TNZ008-025-027-028-033-062-065-066-040500-
NORTH MIDDLE TENNESSEE

CITY           SKY/WX    TMP DP  RH WIND       PRES   REMARKS
NASHVILLE      LGT RAIN  40  36  86 NE7       30.25F
CLARKSVILLE    LGT RAIN  40  34  79 E6        30.24F
SMYRNA         LGT RAIN  40  37  89 NE6       30.26F
CROSSVILLE     MIX PCPN  37  35  92 NE3       30.22F
$$

TNZ061-075-076-078-094-096-097-040500-
SOUTH MIDDLE TENNESSEE

CITY           SKY/WX    TMP DP  RH WIND       PRES   REMARKS
TULLAHOMA      CLOUDY    37  37 100 NE7       30.20F WCI  32
WINCHESTER     CLOUDY    39  39 100 NE5       30.21S
SHELBYVILLE    CLOUDY    41  39  93 NE5       30.23F
$$

TNZ017-018-042-046-047-040500-
NORTHEAST TENNESSEE

CITY           SKY/WX    TMP DP  RH WIND       PRES   REMARKS
TRI CITIES     CLOUDY    39  32  76 CALM      30.25S
$$

TNZ012-013-036-069-073-074-040500-
CENTRAL EAST TENNESSEE

CITY           SKY/WX    TMP DP  RH WIND       PRES   REMARKS
KNOXVILLE      LGT RAIN  41  36  82 NE5       30.23F
OAK RIDGE      LGT RAIN  42  37  82 CALM      30.26F
GATLINBURG     MOCLDY    39  34  81 CALM      30.24F
$$

TNZ083-085-099-040500-
SOUTHEAST TENNESSEE

CITY           SKY/WX    TMP DP  RH WIND       PRES   REMARKS
CHATTANOOGA    LGT RAIN  43  37  79 NE8       30.24R
$$

SKY/WX REPORTED AS FAIR MEANS FEW OR NO CLOUDS BELOW
12 THOUSAND FEET.





USA.gov is the U.S. government's official web portal to all federal, state and local government web resources and services.